TIANWANG 1B (TW-1B)
1 40927U 15051C   19123.49771917  .00009489  00000-0  15248-3 0  9998
2 40927  97.1447 169.2072 0008470 179.6469 286.0932 15.53187413202848
TIANWANG 1A (TW-1A)
1 40928U 15051D   19123.38475169  .00002671  00000-0  67818-4 0  9994
2 40928  97.1513 155.7131 0009661 235.2237 250.5893 15.40483844202041
LAPAN A2
1 40931U 15052B   19122.13627033  .00000911  00000-0  37855-4 0  9993
2 40931   6.0003  35.6771 0013465 206.9838 153.0373 14.76606943194228
LQSAT
1 40958U 15057A   19122.76275046  .00000022  00000-0  11138-4 0  9998
2 40958  97.9015 193.2182 0018916  35.9980 324.2498 14.73075435191893
CHUBUSAT 2
1 41338U 16012B   19122.31644094  .00000349  00000-0  20468-4 0  9995
2 41338  31.0030  85.8385 0013722 353.6136   6.4323 15.00131896175798
CHUBUSAT 3
1 41339U 16012C   19123.28946673  .00000293  00000-0  16027-4 0  9995
2 41339  31.0098  77.8115 0013640  10.4318 349.6605 15.00309071175937
OUFTI-1
1 41458U 16025C   19123.20437981  .00001906  00000-0  10036-3 0  9995
2 41458  98.1007 207.6937 0167902 152.9782 208.0310 15.05639488165580
E-STAR-2
1 41459U 16025D   19123.20990519  .00001145  00000-0  62331-4 0  9998
2 41459  98.1023 207.3921 0169749 154.0322 206.9579 15.05294183165553
AAUSAT 4
1 41460U 16025E   19123.50840017  .00003716  00000-0  18865-3 0  9998
2 41460  98.0978 208.8299 0159673 146.4874 214.6605 15.07121546165717
NUSAT 1
1 41557U 16033B   19123.52254573  .00001294  00000-0  51344-4 0  9991
2 41557  97.4172 211.2961 0015606 100.5052 259.7946 15.27089268163041
BEESAT 4
1 41619U 16040W   19122.73699937  .00001419  00000-0  63249-4 0  9993
2 41619  97.3714 185.8280 0011390 179.9991 180.1248 15.22987611146710
PRATHAM
1 41783U 16059A   19123.15994425  .00000043  00000-0  17575-4 0  9995
2 41783  98.0716 183.7586 0033945 168.1191 192.0820 14.62987000138747
ALSAT 1N
1 41789U 16059G   19123.39327179  .00000035  00000-0  15594-4 0  9993
2 41789  98.0734 185.8801 0028894 156.7424 203.5094 14.64233563138870
NAYIF 1
1 42017U 17008BX  19122.73054591  .00001513  00000-0  62817-4 0  9997
2 42017  97.4064 190.3029 0005644 351.2298   8.8840 15.25382124122768
MAX VALIER SAT
1 42778U 17036P   19122.71712353  .00000999  00000-0  46806-4 0  9994
2 42778  97.3587 181.4083 0013324  36.7723 323.4425 15.21919094103092
